Location: ????????
(60.5616°N, 46.8254°E)
Time: 18:43:52
(UTC+00:00)

SJ 16-02 - Pass Details

Date: 18 February 2020
Orbit: 606 x 616 km, 75.0° (Epoch: 29 March)

Event Time Altitude Azimuth Distance (km) Brightness Sun altitude
Rises 16:44:09 0° 328° (NNW) 2,902 5.5 -22.0°
Reaches altitude 10° 16:46:24 10° 329° (NNW) 1,991 4.6 -22.3°
Maximum altitude 16:50:52 87° 59° (ENE) 625 1.2 -22.8°
Enters shadow 16:51:14 75° 137° (SE) 644 1.2 -22.8°
